Location: *
(37.5724°S, 58.0067°E)
Time: 04:10:27
(UTC+00:00)

NOSS 3-1 (A) - Pass Details

Date: 25 June 2021
Orbit: 729 x 1483 km, 63.4° (Epoch: 23 July)

Event Time Altitude Azimuth Distance (km) Brightness Sun altitude
Rises 16:12:52 0° 215° (SW) 3,730 6.9 -37.7°
Reaches altitude 10° 16:15:40 10° 217° (SW) 2,664 6.1 -38.2°
Enters shadow 16:17:31 20° 219° (SW) 1,970 5.4 -38.6°
